Showing default

YAOGAN-30 M, 43172

Orbit data source: Space-Track

YAOGAN-30 M, 43172 is a payload satellite owned by PLA SSF (CN) in LEO that was launched on Thu, 25 Jan 2018 UTC via a CHANG ZHENG 2C launch vehicle from the Xichang Space Center, China (XSC). Payloads include a variety of satellites, spacecraft, and rockets equipped with specific instruments for various scientific and technological missions. These include communications satellites like Starlink; space stations such as the ISS; scientific satellites like the Hubble; Earth observation satellites from companies like Planet Labs, Umbra, and HawkEye 360; GPS; miniature CubeSats for education and research; and military/defense satellites.

Loading next visibility...
YAOGAN-30 M details
Identifier
43172, 2018-011D
Orbit
LEO
Last TLE update6 hours ago
Origin
Flag of CNPLA SSF (CN / PRC)
ManufacturerSECM
MissionOperational Defense Sigint
Bus & MotorUnknown
Mass~500 kg wet, ~500 kg dry
Launch date (UTC)
2018-01-25 (7 years ago)
Launch vehicle
CHANG ZHENG 2C
Launch site
Xichang Space Center, China (XSC)
Object type
Payload
Rocket body
Debris
Shape & HBRBox + 2 Pan, 1 m
Radar Cross Section0.446 m², Large (>1 m²)

Expand to show TLE details & history

TLE from 6 hours ago
0 YAOGAN-30 M
1 43172U 18011D   24361.55081263  .00006468  00000-0  53712-3 0  9999
2 43172  34.9948 177.7171 0003771  34.5293 325.5659 14.98133322377278
Epoch: 2024-12-26T13:13Z
Definitive object data (Epoch: 2024-12-26T13:13:10.211Z)
Latitude0.00003°
Longitude-116.10399°
Altitude569.422 km
Speed7.58 km/s
True Right ascension11h 50m 52s
True Declination0° 00' 00"
Sunlit
Object was in daylight at TLE epoch
Visualization TLE readout
Latitude-28.30205°
Longitude112.32913°
Altitude581.656 km
Speed7.569 km/s
Apparent Right ascension04h 33m 25s
Apparent Declination-36° 20' 43"
Sunlit
Object is in daylight
Visualization observer readout
Local Sidereal Time18:26:23
Azimuth89.883° E
Elevation-67.599°
Doppler factor1
Orbital elements
Apogee altitude578.502 km
Perigee altitude573.257 km
Semi-major axis6,954.017 km
Eccentricity0.0003771
Inclination34.9948°
RAAN177.7171°
Arg. of periapsis34.5293°
True anomaly325.54146°
Mean anomaly325.5659°
Eccentric anomaly325.55368°
Mean motion3.74274 °/min
BSTAR0.00053712
Orbital period96.19 mins
Loading maneuver chart data...
Loading historical data...
Loading historical data...
Loading historical data...
Loading historical data...
Loading historical data...
Loading historical data...
Loading historical data...
Other satellites on launch #11 in the year 2018 (2018-01-25 UTC)

YAOGAN-30 M Visibility forecast

Observer location: undefined°, undefined

Span
Click to sort rows by Start time (UTC) header in descending order
Start Az.
Max El. time (UTC)
Max El. Az.
Max El.
End time (UTC)
End Az.
7 mins2024-12-26 20:02:46.932Z254.812° W2024-12-26 20:06:46.932Z182.657° SSW25.625°2024-12-26 20:09:46.932Z136.689° SSE
5 mins2024-12-27 16:42:46.932Z219.627° SW2024-12-27 16:44:46.932Z171.772° S30.199°2024-12-27 16:47:46.932Z109.603° ESE
6 mins2024-12-27 18:23:46.932Z242.67° WSW2024-12-27 18:25:46.932Z196.267° SSW33.088°2024-12-27 18:29:46.932Z115.952° SE
|